カタログに戻る

DELTA 1 DEB

運用中UNKNOWN
NORAD 13534·DEBRIS·🇺🇸 United States

打ち上げ Jul 29, 1976 から Vandenberg Space Force Base

Loading…

次のパス (今後24時間)

TLE

最新Source: Space-Track

元期: Sep 14, 2026, 05:59 UTC

1 13534U 76077EG  26257.24963179 -.00000067  00000-0 -48770-3 0  9990
2 13534 101.8657 357.0490 0397083  53.5384 336.2867 11.68359974 35749

AllMySatでDELTA 1 DEBをリアルタイム追跡

Download on the App Store